Regional Weather Roundup
Issued by NWS Sioux Falls, SD

Home | Current Version | Previous Version | Graphics & Text | Print | Product List | Glossary Off
Versions: 1 2 3 4 5 6 7 8 9 10 11 12 13 14 15 16 17 18 19 20 21 22 23 24 25 26 27 28 29 30 31 32 33 34 35 36 37 38 39 40 41 42 43 44 45 46 47 48 49 50

000
ASUS43 KFSD 270302
RWRFSD

WEATHER ROUNDUP FOR SE SOUTH DAKOTA/SW MINNESOTA/NW IOWA
NATIONAL WEATHER SERVICE SIOUX FALLS SD
1000 PM CDT SUN MAR 26 2017

NOTE: "FAIR" INDICATES FEW OR NO CLOUDS BELOW 12,000 FEET WITH NO
SIGNIFICANT WEATHER AND OR OBSTRUCTIONS TO VISIBILITY.


SDZ038>040-050-052>070-270400-
SOUTHEAST SOUTH DAKOTA

CITY           SKY/WX    TMP DP  RH WIND       PRES   REMARKS
BROOKINGS      CLOUDY    40  37  89 S6        29.95R
CHAMBERLAIN    CLEAR     38  38 100 E5        29.96R
HURON          PTCLDY    40  37  89 S3        29.95R
MADISON        MOCLDY    37  37 100 SE6       29.96R
MITCHELL       CLOUDY    45  39  79 SW3       29.98R
SIOUX FALLS    CLOUDY    44  39  82 CALM      29.98R
WINNER         FAIR      40  35  83 E6        29.95S
YANKTON        CLOUDY    46  39  76 E3        29.97R
$$

MNZ071-072-080-081-089-090-097-098-270400-
SOUTHWEST MINNESOTA

CITY           SKY/WX    TMP DP  RH WIND       PRES   REMARKS
FAIRMONT       CLOUDY    40  37  89 N7        29.95R
JACKSON        CLOUDY    39  37  93 CALM      29.96R
MARSHALL       CLOUDY    38  36  92 W6        29.96
MONTEVIDEO     MOCLDY    41  36  81 NW3       29.97R
PIPESTONE      CLOUDY    41  36  81 CALM      29.96R
REDWOOD FALLS  MOCLDY    40  36  86 SE3       29.95R
TRACY          CLOUDY    41  39  93 W3        29.96R
WINDOM         PTCLDY    39  39 100 CALM      29.95S
WORTHINGTON    CLOUDY    40  37  89 SW3       29.98R
$$

IAZ001>003-012>014-020>022-031-032-NEZ013-014-SDZ071-270400-
NORTHWEST IOWA

CITY           SKY/WX    TMP DP  RH WIND       PRES   REMARKS
CHEROKEE       CLOUDY    43  41  91 N3        29.97S
ESTHERVILLE    CLOUDY    39  39 100 W3        29.96R
LE MARS        CLOUDY    45  41  87 N3        29.98S
ORANGE CITY    CLOUDY    43  39  87 CALM      29.97S
SHELDON        CLOUDY    41  41 100 N6        29.96S
SIOUX CITY     CLOUDY    47  41  80 N5        29.98R
SPENCER        CLOUDY    42  39  89 NW5       29.97R
STORM LAKE     CLOUDY    43  39  87 N3        29.96S
$$

ABBREVIATIONS USED IN REMARKS
   TC - TEMPERATURE IN CELSIUS
  WCI - WIND CHILL INDEX
   HX - HEAT INDEX
  VSB - VISIBILITY





USA.gov is the U.S. government's official web portal to all federal, state and local government web resources and services.